Location: Burland Observatory
(39.4088°N, 105.4217°W)
Time: 08:01:54
(UTC-07:00)

Vanguard 3 - Pass Details

Date: 09 December 2019
Orbit: 507 x 3264 km, 33.4° (Epoch: 26 January)

Event Time Altitude Azimuth Distance (km) Brightness Sun altitude
Rises 15:19:51 0° 278° (W) 6,419 12.3 11.4°
Reaches altitude 10° 15:24:57 10° 267° (W) 5,729 12.4 10.6°
Maximum altitude 15:38:10 25° 221° (SW) 4,982 12.9 8.7°
Drops below altitude 10° 15:52:11 10° 175° (S) 6,005 12.1 6.6°
Sets 15:57:53 0° 163° (SSE) 6,769 12.1 5.7°
